Hagerstown, MD

4:41 AM EDT on October 21, 2019 (GMT -0400)
Hagerstown Regional-Henson

Weather History for KHGR - August, 2019

Change the Weather History Date:

Wednesday, August 14, 2019

  Actual Average Record
Temperature  
Mean Temperature 80 °F 74 °F  
Max Temperature 88 °F 84 °F 96 °F (2002)
Min Temperature 71 °F 64 °F 54 °F (2013)
Degree Days  
Heating Degree Days 0 0  
Month to date heating degree days 0 0  
Since 1 June heating degree days 5 18  
Since 1 July heating degree days 0 0  
Cooling Degree Days 15 9  
Month to date cooling degree days 169 131  
Year to date cooling degree days 1036 737  
Since 1 June cooling degree days 854 661  
Growing Degree Days 29 (Base 50)    
Moisture  
Dew Point 69 °F    
Average Humidity 70    
Maximum Humidity 93    
Minimum Humidity 46    
Precipitation  
Precipitation 0.04 in 0.11 in 0.36 in (2012)
Month to date precipitation 0.99 1.39  
Year to date precipitation 26.96 24.88  
Sea Level Pressure  
Sea Level Pressure 29.84 in    
Wind  
Wind Speed 6 mph (NNW)    
Max Wind Speed 14 mph    
Max Gust Speed 18 mph    
Visibility 5 miles    
Events Fog , Rain    
T = Trace of Precipitation, MM = Missing Value Source: NWS Daily Summary

Daily Weather History Graph

Daily Weather History Graph

Search for Another Location

Airport or City:

Astronomy

Aug. 14, 2019 Rise Set
Actual Time 6:21 AM EDT 8:08 PM EDT
Civil Twilight 5:52 AM EDT 8:37 PM EDT
Nautical Twilight 5:17 AM EDT 9:12 PM EDT
Astronomical Twilight 4:40 AM EDT 9:50 PM EDT
Moon 8:01 PM EDT (8/14) 5:17 AM EDT (8/14)
Length of Visible Light 14h 44m
Length of Day
13h 46m
Waxing Gibbous, 99% of the Moon is Illuminated
Aug 14
Waxing Gibbous
Aug 15
Full
Aug 23
Last Quarter
Aug 30
New
Sep 5
First Quarter

Hourly Weather History & Observations

Time (EDT) Temp. Heat Index Dew Point Humidity Pressure Visibility Wind Dir Wind Speed Gust Speed Precip Events Conditions
12:42 AM 72.0 °F - 70.0 °F 93% 29.79 in 2.0 mi Calm Calm - 0.03 in Rain Light Rain
12:53 AM 72.0 °F - 70.0 °F 93% 29.81 in 2.0 mi NNW 4.6 mph - 0.05 in Rain Light Rain
1:05 AM 72.0 °F - 70.0 °F 93% 29.79 in 1.8 mi NNE 4.6 mph - 0.03 in Rain Light Rain
1:13 AM 72.0 °F - 70.0 °F 93% 29.78 in 2.0 mi ENE 3.5 mph - 0.04 in Rain Light Rain
1:47 AM 71.6 °F - 69.8 °F 94% 29.78 in 1.5 mi NW 3.5 mph - 0.05 in Rain Light Rain
1:53 AM 72.0 °F - 70.0 °F 93% 29.80 in 1.8 mi NNW 3.5 mph - 0.05 in Rain Light Rain
2:02 AM 72.0 °F - 70.0 °F 93% 29.78 in 2.0 mi NNE 3.5 mph - 0.00 in   Overcast
2:33 AM 72.0 °F - 70.0 °F 93% 29.78 in 1.0 mi NW 4.6 mph - 0.01 in Rain Light Rain
2:40 AM 71.1 °F - 70.0 °F 96% 29.78 in 0.5 mi NW 4.6 mph - 0.01 in Fog , Rain Light Rain
2:53 AM 71.1 °F - 70.0 °F 96% 29.79 in 0.8 mi NW 5.8 mph - 0.01 in   Overcast
3:07 AM 71.1 °F - 70.0 °F 96% 29.78 in 1.0 mi NW 5.8 mph - N/A   Overcast
3:53 AM 71.1 °F - 69.1 °F 93% 29.80 in 1.8 mi NNW 3.5 mph - 0.00 in Rain Light Rain
4:53 AM 72.0 °F - 69.1 °F 91% 29.80 in 2.0 mi Variable 3.5 mph - 0.00 in   Overcast
5:11 AM 72.0 °F - 70.0 °F 93% 29.79 in 1.8 mi WNW 5.8 mph - N/A   Overcast
5:53 AM 71.1 °F - 69.1 °F 93% 29.81 in 1.5 mi WNW 4.6 mph - N/A   Overcast
6:53 AM 71.1 °F - 69.1 °F 93% 29.85 in 1.2 mi WNW 6.9 mph - N/A   Overcast
7:53 AM 72.0 °F - 70.0 °F 93% 29.85 in 2.0 mi NW 3.5 mph - 0.00 in   Overcast
8:41 AM 73.0 °F - 70.0 °F 90% 29.85 in 2.0 mi WNW 8.1 mph - N/A   Mostly Cloudy
8:53 AM 73.0 °F - 70.0 °F 90% 29.87 in 2.0 mi NW 8.1 mph - N/A   Overcast
8:58 AM 73.9 °F - 70.0 °F 87% 29.85 in 3.0 mi WNW 8.1 mph - N/A   Overcast
9:10 AM 75.0 °F - 71.1 °F 87% 29.84 in 5.0 mi NNW 9.2 mph - N/A   Overcast
9:27 AM 75.9 °F - 70.0 °F 82% 29.85 in 5.0 mi NNW 9.2 mph - N/A   Haze
9:53 AM 75.9 °F - 70.0 °F 82% 29.86 in 10.0 mi NNW 8.1 mph - N/A   Overcast
10:20 AM 78.1 °F - 70.0 °F 76% 29.85 in 10.0 mi NNW 9.2 mph - N/A   Mostly Cloudy
10:53 AM 79.0 °F - 69.1 °F 72% 29.86 in 10.0 mi NNW 9.2 mph - N/A   Mostly Cloudy
11:11 AM 80.1 °F 82.7 °F 68.0 °F 67% 29.85 in 10.0 mi North 9.2 mph - N/A   Mostly Cloudy
12:53 PM 84.0 °F 87.0 °F 68.0 °F 58% 29.88 in 10.0 mi North 9.2 mph - N/A   Mostly Cloudy
1:53 PM 84.9 °F 87.6 °F 66.9 °F 55% 29.87 in 10.0 mi NNE 9.2 mph - N/A   Mostly Cloudy
2:53 PM 84.0 °F 86.3 °F 66.0 °F 55% 29.87 in 10.0 mi North 8.1 mph - N/A   Scattered Clouds
3:53 PM 87.1 °F 89.2 °F 66.0 °F 49% 29.87 in 10.0 mi NE 9.2 mph - N/A   Scattered Clouds
4:53 PM 87.1 °F 89.2 °F 66.0 °F 49% 29.87 in 10.0 mi Variable 4.6 mph - N/A   Scattered Clouds
5:53 PM 87.1 °F 88.9 °F 64.9 °F 48% 29.87 in 10.0 mi WNW 6.9 mph - N/A   Partly Cloudy
6:53 PM 86.0 °F 87.6 °F 64.9 °F 49% 29.86 in 10.0 mi WNW 6.9 mph - N/A   Clear
7:53 PM 82.9 °F 85.0 °F 66.0 °F 56% 29.88 in 10.0 mi WNW 5.8 mph - N/A   Clear
8:53 PM 82.0 °F 84.1 °F 66.0 °F 58% 29.90 in 10.0 mi NNW 3.5 mph - N/A   Clear
9:53 PM 79.0 °F - 66.0 °F 64% 29.92 in 10.0 mi NNE 6.9 mph - N/A   Clear
10:53 PM 77.0 °F - 66.0 °F 69% 29.94 in 10.0 mi NE 3.5 mph - N/A   Clear
11:53 PM 73.9 °F - 66.9 °F 79% 29.94 in 10.0 mi Calm Calm - N/A   Clear